Year,Month,Day,Hour,Minute,Value (Times are PST for insolation in W/m^2)
2018,09,13,00,00,0.00
2018,09,13,00,01,0.00
2018,09,13,00,02,0.00
2018,09,13,00,03,0.00
2018,09,13,00,04,0.00
2018,09,13,00,05,0.00
2018,09,13,00,06,0.00
2018,09,13,00,07,0.00
2018,09,13,00,08,0.00
2018,09,13,00,09,0.00
2018,09,13,00,10,0.00
2018,09,13,00,11,0.00
2018,09,13,00,12,0.00
2018,09,13,00,13,0.00
2018,09,13,00,14,0.00
2018,09,13,00,15,0.00
2018,09,13,00,16,0.00
2018,09,13,00,17,0.00
2018,09,13,00,18,0.00
2018,09,13,00,19,0.00
2018,09,13,00,20,0.00
2018,09,13,00,21,0.00
2018,09,13,00,22,0.00
2018,09,13,00,23,0.00
2018,09,13,00,24,0.00
2018,09,13,00,25,0.00
2018,09,13,00,26,0.00
2018,09,13,00,27,0.00
2018,09,13,00,28,0.00
2018,09,13,00,29,0.00
2018,09,13,00,30,0.00
2018,09,13,00,31,0.00
2018,09,13,00,32,0.00
2018,09,13,00,33,0.00
2018,09,13,00,34,0.00
2018,09,13,00,35,0.00
2018,09,13,00,36,0.00
2018,09,13,00,37,0.00
2018,09,13,00,38,0.00
2018,09,13,00,39,0.00
2018,09,13,00,40,0.00
2018,09,13,00,41,0.00
2018,09,13,00,42,0.00
2018,09,13,00,43,0.00
2018,09,13,00,44,0.00
2018,09,13,00,45,0.00
2018,09,13,00,46,0.00
2018,09,13,00,47,0.00
2018,09,13,00,48,0.00
2018,09,13,00,49,0.00
2018,09,13,00,50,0.00
2018,09,13,00,51,0.00
2018,09,13,00,52,0.00
2018,09,13,00,53,0.00
2018,09,13,00,54,0.00
2018,09,13,00,55,0.00
2018,09,13,00,56,0.00
2018,09,13,00,57,0.00
2018,09,13,00,58,0.00
2018,09,13,00,59,0.00
2018,09,13,01,00,0.00
2018,09,13,01,01,0.00
2018,09,13,01,02,0.00
2018,09,13,01,03,0.00
2018,09,13,01,04,0.00
2018,09,13,01,05,0.00
2018,09,13,01,06,0.00
2018,09,13,01,07,0.00
2018,09,13,01,08,0.00
2018,09,13,01,09,0.00
2018,09,13,01,10,0.00
2018,09,13,01,11,0.00
2018,09,13,01,12,0.00
2018,09,13,01,13,0.00
2018,09,13,01,14,0.00
2018,09,13,01,15,0.00
2018,09,13,01,16,0.00
2018,09,13,01,17,0.00
2018,09,13,01,18,0.00
2018,09,13,01,19,0.00
2018,09,13,01,20,0.00
2018,09,13,01,21,0.00
2018,09,13,01,22,0.00
2018,09,13,01,23,0.00
2018,09,13,01,24,0.00
2018,09,13,01,25,0.00
2018,09,13,01,26,0.00
2018,09,13,01,27,0.00
2018,09,13,01,28,0.00
2018,09,13,01,29,0.00
2018,09,13,01,30,0.00
2018,09,13,01,31,0.00
2018,09,13,01,32,0.00
2018,09,13,01,33,0.00
2018,09,13,01,34,0.00
2018,09,13,01,35,0.00
2018,09,13,01,36,0.00
2018,09,13,01,37,0.00
2018,09,13,01,38,0.00
2018,09,13,01,39,0.00
2018,09,13,01,40,0.00
2018,09,13,01,41,0.00
2018,09,13,01,42,0.00
2018,09,13,01,43,0.00
2018,09,13,01,44,0.00
2018,09,13,01,45,0.00
2018,09,13,01,46,0.00
2018,09,13,01,47,0.00
2018,09,13,01,48,0.00
2018,09,13,01,49,0.00
2018,09,13,01,50,0.00
2018,09,13,01,51,0.00
2018,09,13,01,52,0.00
2018,09,13,01,53,0.00
2018,09,13,01,54,0.00
2018,09,13,01,55,0.00
2018,09,13,01,56,0.00
2018,09,13,01,57,0.00
2018,09,13,01,58,0.00
2018,09,13,01,59,0.00
2018,09,13,02,00,0.00
2018,09,13,02,01,0.00
2018,09,13,02,02,0.00
2018,09,13,02,03,0.00
2018,09,13,02,04,0.00
2018,09,13,02,05,0.00
2018,09,13,02,06,0.00
2018,09,13,02,07,0.00
2018,09,13,02,08,0.00
2018,09,13,02,09,0.00
2018,09,13,02,10,0.00
2018,09,13,02,11,0.00
2018,09,13,02,12,0.00
2018,09,13,02,13,0.00
2018,09,13,02,14,0.00
2018,09,13,02,15,0.00
2018,09,13,02,16,0.00
2018,09,13,02,17,0.00
2018,09,13,02,18,0.00
2018,09,13,02,19,0.00
2018,09,13,02,20,0.00
2018,09,13,02,21,0.00
2018,09,13,02,22,0.00
2018,09,13,02,23,0.00
2018,09,13,02,24,0.00
2018,09,13,02,25,0.00
2018,09,13,02,26,0.00
2018,09,13,02,27,0.00
2018,09,13,02,28,0.00
2018,09,13,02,29,0.00
2018,09,13,02,30,0.00
2018,09,13,02,31,0.00
2018,09,13,02,32,0.00
2018,09,13,02,33,0.00
2018,09,13,02,34,0.00
2018,09,13,02,35,0.00
2018,09,13,02,36,0.00
2018,09,13,02,37,0.00
2018,09,13,02,38,0.00
2018,09,13,02,39,0.00
2018,09,13,02,40,0.00
2018,09,13,02,41,0.00
2018,09,13,02,42,0.00
2018,09,13,02,43,0.00
2018,09,13,02,44,0.00
2018,09,13,02,45,0.00
2018,09,13,02,46,0.00
2018,09,13,02,47,0.00
2018,09,13,02,48,0.00
2018,09,13,02,49,0.00
2018,09,13,02,50,0.00
2018,09,13,02,51,0.00
2018,09,13,02,52,0.00
2018,09,13,02,53,0.00
2018,09,13,02,54,0.00
2018,09,13,02,55,0.00
2018,09,13,02,56,0.00
2018,09,13,02,57,0.00
2018,09,13,02,58,0.00
2018,09,13,02,59,0.00
2018,09,13,03,00,0.00
2018,09,13,03,01,0.00
2018,09,13,03,02,0.00
2018,09,13,03,03,0.00
2018,09,13,03,04,0.00
2018,09,13,03,05,0.00
2018,09,13,03,06,0.00
2018,09,13,03,07,0.00
2018,09,13,03,08,0.00
2018,09,13,03,09,0.00
2018,09,13,03,10,0.00
2018,09,13,03,11,0.00
2018,09,13,03,12,0.00
2018,09,13,03,13,0.00
2018,09,13,03,14,0.00
2018,09,13,03,15,0.00
2018,09,13,03,16,0.00
2018,09,13,03,17,0.00
2018,09,13,03,18,0.00
2018,09,13,03,19,0.00
2018,09,13,03,20,0.00
2018,09,13,03,21,0.00
2018,09,13,03,22,0.00
2018,09,13,03,23,0.00
2018,09,13,03,24,0.00
2018,09,13,03,25,0.00
2018,09,13,03,26,0.00
2018,09,13,03,27,0.00
2018,09,13,03,28,0.00
2018,09,13,03,29,0.00
2018,09,13,03,30,0.00
2018,09,13,03,31,0.00
2018,09,13,03,32,0.00
2018,09,13,03,33,0.00
2018,09,13,03,34,0.00
2018,09,13,03,35,0.00
2018,09,13,03,36,0.00
2018,09,13,03,37,0.00
2018,09,13,03,38,0.00
2018,09,13,03,39,0.00
2018,09,13,03,40,0.00
2018,09,13,03,41,0.00
2018,09,13,03,42,0.00
2018,09,13,03,43,0.00
2018,09,13,03,44,0.00
2018,09,13,03,45,0.00
2018,09,13,03,46,0.00
2018,09,13,03,47,0.00
2018,09,13,03,48,0.00
2018,09,13,03,49,0.00
2018,09,13,03,50,0.00
2018,09,13,03,51,0.00
2018,09,13,03,52,0.00
2018,09,13,03,53,0.00
2018,09,13,03,54,0.00
2018,09,13,03,55,0.00
2018,09,13,03,56,0.00
2018,09,13,03,57,0.00
2018,09,13,03,58,0.00
2018,09,13,03,59,0.00
2018,09,13,04,00,0.00
2018,09,13,04,01,0.00
2018,09,13,04,02,0.00
2018,09,13,04,03,0.00
2018,09,13,04,04,0.00
2018,09,13,04,05,0.00
2018,09,13,04,06,0.00
2018,09,13,04,07,0.00
2018,09,13,04,08,0.00
2018,09,13,04,09,0.00
2018,09,13,04,10,0.00
2018,09,13,04,11,0.00
2018,09,13,04,12,0.00
2018,09,13,04,13,0.00
2018,09,13,04,14,0.00
2018,09,13,04,15,0.00
2018,09,13,04,16,0.00
2018,09,13,04,17,0.00
2018,09,13,04,18,0.00
2018,09,13,04,19,0.00
2018,09,13,04,20,0.00
2018,09,13,04,21,0.00
2018,09,13,04,22,0.00
2018,09,13,04,23,0.00
2018,09,13,04,24,0.00
2018,09,13,04,25,0.00
2018,09,13,04,26,0.00
2018,09,13,04,27,0.00
2018,09,13,04,28,0.00
2018,09,13,04,29,0.00
2018,09,13,04,30,0.00
2018,09,13,04,31,0.00
2018,09,13,04,32,0.00
2018,09,13,04,33,0.00
2018,09,13,04,34,0.00
2018,09,13,04,35,0.00
2018,09,13,04,36,0.00
2018,09,13,04,37,0.00
2018,09,13,04,38,0.00
2018,09,13,04,39,0.00
2018,09,13,04,40,0.00
2018,09,13,04,41,0.00
2018,09,13,04,42,0.00
2018,09,13,04,43,0.00
2018,09,13,04,44,0.00
2018,09,13,04,45,0.00
2018,09,13,04,46,0.00
2018,09,13,04,47,0.00
2018,09,13,04,48,0.00
2018,09,13,04,49,0.00
2018,09,13,04,50,0.00
2018,09,13,04,51,0.00
2018,09,13,04,52,0.00
2018,09,13,04,53,0.00
2018,09,13,04,54,0.00
2018,09,13,04,55,0.00
2018,09,13,04,56,0.00
2018,09,13,04,57,0.00
2018,09,13,04,58,0.00
2018,09,13,04,59,0.00
2018,09,13,05,00,0.00
2018,09,13,05,01,0.00
2018,09,13,05,02,0.00
2018,09,13,05,03,0.00
2018,09,13,05,04,0.00
2018,09,13,05,05,0.00
2018,09,13,05,06,0.00
2018,09,13,05,07,0.00
2018,09,13,05,08,0.00
2018,09,13,05,09,0.00
2018,09,13,05,10,0.00
2018,09,13,05,11,0.00
2018,09,13,05,12,0.00
2018,09,13,05,13,0.00
2018,09,13,05,14,0.00
2018,09,13,05,15,0.00
2018,09,13,05,16,0.00
2018,09,13,05,17,0.00
2018,09,13,05,18,0.00
2018,09,13,05,19,0.00
2018,09,13,05,20,0.00
2018,09,13,05,21,0.00
2018,09,13,05,22,0.00
2018,09,13,05,23,0.00
2018,09,13,05,24,0.00
2018,09,13,05,25,0.00
2018,09,13,05,26,0.00
2018,09,13,05,27,0.00
2018,09,13,05,28,0.00
2018,09,13,05,29,0.00
2018,09,13,05,30,0.00
2018,09,13,05,31,0.00
2018,09,13,05,32,0.00
2018,09,13,05,33,0.00
2018,09,13,05,34,0.00
2018,09,13,05,35,0.00
2018,09,13,05,36,0.00
2018,09,13,05,37,0.00
2018,09,13,05,38,0.00
2018,09,13,05,39,0.00
2018,09,13,05,40,0.00
2018,09,13,05,41,0.00
2018,09,13,05,42,0.00
2018,09,13,05,43,0.00
2018,09,13,05,44,0.00
2018,09,13,05,45,0.00
2018,09,13,05,46,0.00
2018,09,13,05,47,0.00
2018,09,13,05,48,0.00
2018,09,13,05,49,0.00
2018,09,13,05,50,0.00
2018,09,13,05,51,0.00
2018,09,13,05,52,0.00
2018,09,13,05,53,0.00
2018,09,13,05,54,0.00
2018,09,13,05,55,0.00
2018,09,13,05,56,0.00
2018,09,13,05,57,0.00
2018,09,13,05,58,0.00
2018,09,13,05,59,0.00
2018,09,13,06,00,0.00
2018,09,13,06,01,0.00
2018,09,13,06,02,0.00
2018,09,13,06,03,0.00
2018,09,13,06,04,0.00
2018,09,13,06,05,0.00
2018,09,13,06,06,0.00
2018,09,13,06,07,0.00
2018,09,13,06,08,0.00
2018,09,13,06,09,0.00
2018,09,13,06,10,0.00
2018,09,13,06,11,0.00
2018,09,13,06,12,0.00
2018,09,13,06,13,0.00
2018,09,13,06,14,0.00
2018,09,13,06,15,0.00
2018,09,13,06,16,0.00
2018,09,13,06,17,0.00
2018,09,13,06,18,0.00
2018,09,13,06,19,0.00
2018,09,13,06,20,0.00
2018,09,13,06,21,0.00
2018,09,13,06,22,0.00
2018,09,13,06,23,0.00
2018,09,13,06,24,0.00
2018,09,13,06,25,0.00
2018,09,13,06,26,0.00
2018,09,13,06,27,0.00
2018,09,13,06,28,0.00
2018,09,13,06,29,0.00
2018,09,13,06,30,0.00
2018,09,13,06,31,0.00
2018,09,13,06,32,0.00
2018,09,13,06,33,0.00
2018,09,13,06,34,0.00
2018,09,13,06,35,0.00
2018,09,13,06,36,0.00
2018,09,13,06,37,0.00
2018,09,13,06,38,0.00
2018,09,13,06,39,0.00
2018,09,13,06,40,0.00
2018,09,13,06,41,0.00
2018,09,13,06,42,0.00
2018,09,13,06,43,0.00
2018,09,13,06,44,0.00
2018,09,13,06,45,0.00
2018,09,13,06,46,0.00
2018,09,13,06,47,0.00
2018,09,13,06,48,0.00
2018,09,13,06,49,0.00
2018,09,13,06,50,0.00
2018,09,13,06,51,0.00
2018,09,13,06,52,0.00
2018,09,13,06,53,0.00
2018,09,13,06,54,0.00
2018,09,13,06,55,0.00
2018,09,13,06,56,0.00
2018,09,13,06,57,0.00
2018,09,13,06,58,0.00
2018,09,13,06,59,0.00
2018,09,13,07,00,0.00
2018,09,13,07,01,0.00
2018,09,13,07,02,0.00
2018,09,13,07,03,0.00
2018,09,13,07,04,0.00
2018,09,13,07,05,0.00
2018,09,13,07,06,0.00
2018,09,13,07,07,0.00
2018,09,13,07,08,0.00
2018,09,13,07,09,4.50
2018,09,13,07,10,5.00
2018,09,13,07,11,5.00
2018,09,13,07,12,5.40
2018,09,13,07,13,7.00
2018,09,13,07,14,7.00
2018,09,13,07,15,7.00
2018,09,13,07,16,7.80
2018,09,13,07,17,9.00
2018,09,13,07,18,9.00
2018,09,13,07,19,9.00
2018,09,13,07,20,10.30
2018,09,13,07,21,11.00
2018,09,13,07,22,11.00
2018,09,13,07,23,11.00
2018,09,13,07,24,11.00
2018,09,13,07,25,11.00
2018,09,13,07,26,11.90
2018,09,13,07,27,11.00
2018,09,13,07,28,11.20
2018,09,13,07,29,12.00
2018,09,13,07,30,12.70
2018,09,13,07,31,14.00
2018,09,13,07,32,15.00
2018,09,13,07,33,16.00
2018,09,13,07,34,16.00
2018,09,13,07,35,16.00
2018,09,13,07,36,17.40
2018,09,13,07,37,18.00
2018,09,13,07,38,20.60
2018,09,13,07,39,21.00
2018,09,13,07,40,22.90
2018,09,13,07,41,21.00
2018,09,13,07,42,21.00
2018,09,13,07,43,21.00
2018,09,13,07,44,21.60
2018,09,13,07,45,23.70
2018,09,13,07,46,25.00
2018,09,13,07,47,25.00
2018,09,13,07,48,25.00
2018,09,13,07,49,25.60
2018,09,13,07,50,28.70
2018,09,13,07,51,31.50
2018,09,13,07,52,32.00
2018,09,13,07,53,32.90
2018,09,13,07,54,32.10
2018,09,13,07,55,32.10
2018,09,13,07,56,35.20
2018,09,13,07,57,37.40
2018,09,13,07,58,39.20
2018,09,13,07,59,39.70
2018,09,13,08,00,40.00
2018,09,13,08,01,42.80
2018,09,13,08,02,44.00
2018,09,13,08,03,44.00
2018,09,13,08,04,45.20
2018,09,13,08,05,46.70
2018,09,13,08,06,47.00
2018,09,13,08,07,46.20
2018,09,13,08,08,46.90
2018,09,13,08,09,47.00
2018,09,13,08,10,42.30
2018,09,13,08,11,44.00
2018,09,13,08,12,44.30
2018,09,13,08,13,46.00
2018,09,13,08,14,46.30
2018,09,13,08,15,48.30
2018,09,13,08,16,50.20
2018,09,13,08,17,51.40
2018,09,13,08,18,53.50
2018,09,13,08,19,53.00
2018,09,13,08,20,55.00
2018,09,13,08,21,54.60
2018,09,13,08,22,54.00
2018,09,13,08,23,54.00
2018,09,13,08,24,49.50
2018,09,13,08,25,49.10
2018,09,13,08,26,51.00
2018,09,13,08,27,51.00
2018,09,13,08,28,51.50
2018,09,13,08,29,53.00
2018,09,13,08,30,52.30
2018,09,13,08,31,51.80
2018,09,13,08,32,52.00
2018,09,13,08,33,52.10
2018,09,13,08,34,53.00
2018,09,13,08,35,51.70
2018,09,13,08,36,48.10
2018,09,13,08,37,44.60
2018,09,13,08,38,42.30
2018,09,13,08,39,43.80
2018,09,13,08,40,46.00
2018,09,13,08,41,47.20
2018,09,13,08,42,48.30
2018,09,13,08,43,44.50
2018,09,13,08,44,45.40
2018,09,13,08,45,43.30
2018,09,13,08,46,42.80
2018,09,13,08,47,42.10
2018,09,13,08,48,40.00
2018,09,13,08,49,41.20
2018,09,13,08,50,42.00
2018,09,13,08,51,42.00
2018,09,13,08,52,42.00
2018,09,13,08,53,42.00
2018,09,13,08,54,42.00
2018,09,13,08,55,44.00
2018,09,13,08,56,45.80
2018,09,13,08,57,44.00
2018,09,13,08,58,44.70
2018,09,13,08,59,47.00
2018,09,13,09,00,48.50
2018,09,13,09,01,52.30
2018,09,13,09,02,55.00
2018,09,13,09,03,57.00
2018,09,13,09,04,56.80
2018,09,13,09,05,54.00
2018,09,13,09,06,53.70
2018,09,13,09,07,55.50
2018,09,13,09,08,54.30
2018,09,13,09,09,53.10
2018,09,13,09,10,49.00
2018,09,13,09,11,45.60
2018,09,13,09,12,41.70
2018,09,13,09,13,40.50
2018,09,13,09,14,41.10
2018,09,13,09,15,38.30
2018,09,13,09,16,37.80
2018,09,13,09,17,39.50
2018,09,13,09,18,42.10
2018,09,13,09,19,41.60
2018,09,13,09,20,40.00
2018,09,13,09,21,41.50
2018,09,13,09,22,43.60
2018,09,13,09,23,42.30
2018,09,13,09,24,42.00
2018,09,13,09,25,42.00
2018,09,13,09,26,41.70
2018,09,13,09,27,38.70
2018,09,13,09,28,37.00
2018,09,13,09,29,37.60
2018,09,13,09,30,38.30
2018,09,13,09,31,37.00
2018,09,13,09,32,36.00
2018,09,13,09,33,35.00
2018,09,13,09,34,35.00
2018,09,13,09,35,35.00
2018,09,13,09,36,33.60
2018,09,13,09,37,33.00
2018,09,13,09,38,34.70
2018,09,13,09,39,35.00
2018,09,13,09,40,35.10
2018,09,13,09,41,37.20
2018,09,13,09,42,39.00
2018,09,13,09,43,39.00
2018,09,13,09,44,39.00
2018,09,13,09,45,39.00
2018,09,13,09,46,39.40
2018,09,13,09,47,40.00
2018,09,13,09,48,40.00
2018,09,13,09,49,42.50
2018,09,13,09,50,44.00
2018,09,13,09,51,46.10
2018,09,13,09,52,47.00
2018,09,13,09,53,46.10
2018,09,13,09,54,46.90
2018,09,13,09,55,47.00
2018,09,13,09,56,47.20
2018,09,13,09,57,48.60
2018,09,13,09,58,47.00
2018,09,13,09,59,47.60
2018,09,13,10,00,49.00
2018,09,13,10,01,50.60
2018,09,13,10,02,54.40
2018,09,13,10,03,58.10
2018,09,13,10,04,61.80
2018,09,13,10,05,65.70
2018,09,13,10,06,69.10
2018,09,13,10,07,70.00
2018,09,13,10,08,71.70
2018,09,13,10,09,76.50
2018,09,13,10,10,79.20
2018,09,13,10,11,86.00
2018,09,13,10,12,85.70
2018,09,13,10,13,84.90
2018,09,13,10,14,88.00
2018,09,13,10,15,88.00
2018,09,13,10,16,90.10
2018,09,13,10,17,94.00
2018,09,13,10,18,96.60
2018,09,13,10,19,98.00
2018,09,13,10,20,100.80
2018,09,13,10,21,102.00
2018,09,13,10,22,104.40
2018,09,13,10,23,105.00
2018,09,13,10,24,102.30
2018,09,13,10,25,105.00
2018,09,13,10,26,104.70
2018,09,13,10,27,111.30
2018,09,13,10,28,113.20
2018,09,13,10,29,115.70
2018,09,13,10,30,122.90
2018,09,13,10,31,131.00
2018,09,13,10,32,136.00
2018,09,13,10,33,138.00
2018,09,13,10,34,143.10
2018,09,13,10,35,149.30
2018,09,13,10,36,156.00
2018,09,13,10,37,155.70
2018,09,13,10,38,159.30
2018,09,13,10,39,168.20
2018,09,13,10,40,174.40
2018,09,13,10,41,183.50
2018,09,13,10,42,186.20
2018,09,13,10,43,178.00
2018,09,13,10,44,174.30
2018,09,13,10,45,163.30
2018,09,13,10,46,160.00
2018,09,13,10,47,155.70
2018,09,13,10,48,153.70
2018,09,13,10,49,156.00
2018,09,13,10,50,158.70
2018,09,13,10,51,167.90
2018,09,13,10,52,181.80
2018,09,13,10,53,193.60
2018,09,13,10,54,198.60
2018,09,13,10,55,198.70
2018,09,13,10,56,192.00
2018,09,13,10,57,190.40
2018,09,13,10,58,180.50
2018,09,13,10,59,182.10
2018,09,13,11,00,194.00
2018,09,13,11,01,202.80
2018,09,13,11,02,200.70
2018,09,13,11,03,193.20
2018,09,13,11,04,183.20
2018,09,13,11,05,175.70
2018,09,13,11,06,170.40
2018,09,13,11,07,171.30
2018,09,13,11,08,175.40
2018,09,13,11,09,174.20
2018,09,13,11,10,172.00
2018,09,13,11,11,170.40
2018,09,13,11,12,163.60
2018,09,13,11,13,152.50
2018,09,13,11,14,143.10
2018,09,13,11,15,141.00
2018,09,13,11,16,143.00
2018,09,13,11,17,147.00
2018,09,13,11,18,148.50
2018,09,13,11,19,150.20
2018,09,13,11,20,159.00
2018,09,13,11,21,168.70
2018,09,13,11,22,171.00
2018,09,13,11,23,169.30
2018,09,13,11,24,159.00
2018,09,13,11,25,153.00
2018,09,13,11,26,149.20
2018,09,13,11,27,151.70
2018,09,13,11,28,155.70
2018,09,13,11,29,158.60
2018,09,13,11,30,159.30
2018,09,13,11,31,160.00
2018,09,13,11,32,167.30
2018,09,13,11,33,172.00
2018,09,13,11,34,172.00
2018,09,13,11,35,160.70
2018,09,13,11,36,152.10
2018,09,13,11,37,151.00
2018,09,13,11,38,154.40
2018,09,13,11,39,174.00
2018,09,13,11,40,193.40
2018,09,13,11,41,224.60
2018,09,13,11,42,296.30
2018,09,13,11,43,368.60
2018,09,13,11,44,421.00
2018,09,13,11,45,420.10
2018,09,13,11,46,439.00
2018,09,13,11,47,427.80
2018,09,13,11,48,403.10
2018,09,13,11,49,412.50
2018,09,13,11,50,418.00
2018,09,13,11,51,378.60
2018,09,13,11,52,343.90
2018,09,13,11,53,328.60
2018,09,13,11,54,306.20
2018,09,13,11,55,296.90
2018,09,13,11,56,285.60
2018,09,13,11,57,269.90
2018,09,13,11,58,254.50
2018,09,13,11,59,243.40
2018,09,13,12,00,237.00
2018,09,13,12,01,235.70
2018,09,13,12,02,235.40
2018,09,13,12,03,243.00
2018,09,13,12,04,253.60
2018,09,13,12,05,262.30
2018,09,13,12,06,260.00
2018,09,13,12,07,245.00
2018,09,13,12,08,233.30
2018,09,13,12,09,232.00
2018,09,13,12,10,240.90
2018,09,13,12,11,248.30
2018,09,13,12,12,253.00
2018,09,13,12,13,266.00
2018,09,13,12,14,279.00
2018,09,13,12,15,289.50
2018,09,13,12,16,310.10
2018,09,13,12,17,312.00
2018,09,13,12,18,309.40
2018,09,13,12,19,309.80
2018,09,13,12,20,320.30
2018,09,13,12,21,320.00
2018,09,13,12,22,318.00
2018,09,13,12,23,327.40
2018,09,13,12,24,314.50
2018,09,13,12,25,284.40
2018,09,13,12,26,271.50
2018,09,13,12,27,265.40
2018,09,13,12,28,257.80
2018,09,13,12,29,255.00
2018,09,13,12,30,250.30
2018,09,13,12,31,247.70
2018,09,13,12,32,240.10
2018,09,13,12,33,240.70
2018,09,13,12,34,247.50
2018,09,13,12,35,252.00
2018,09,13,12,36,255.90
2018,09,13,12,37,266.70
2018,09,13,12,38,282.70
2018,09,13,12,39,287.70
2018,09,13,12,40,276.60
2018,09,13,12,41,277.60
2018,09,13,12,42,274.00
2018,09,13,12,43,277.30
2018,09,13,12,44,290.60
2018,09,13,12,45,301.00
2018,09,13,12,46,306.10
2018,09,13,12,47,294.90
2018,09,13,12,48,282.80
2018,09,13,12,49,271.90
2018,09,13,12,50,263.70
2018,09,13,12,51,267.10
2018,09,13,12,52,273.00
2018,09,13,12,53,268.00
2018,09,13,12,54,257.90
2018,09,13,12,55,244.10
2018,09,13,12,56,246.20
2018,09,13,12,57,247.30
2018,09,13,12,58,244.50
2018,09,13,12,59,247.10
2018,09,13,13,00,248.00
2018,09,13,13,01,246.90
2018,09,13,13,02,253.90
2018,09,13,13,03,254.80
2018,09,13,13,04,253.00
2018,09,13,13,05,255.70
2018,09,13,13,06,257.70
2018,09,13,13,07,263.40
2018,09,13,13,08,265.00
2018,09,13,13,09,276.80
2018,09,13,13,10,287.20
2018,09,13,13,11,280.50
2018,09,13,13,12,275.30
2018,09,13,13,13,275.60
2018,09,13,13,14,293.30
2018,09,13,13,15,314.80
2018,09,13,13,16,325.90
2018,09,13,13,17,329.40
2018,09,13,13,18,331.00
2018,09,13,13,19,334.70
2018,09,13,13,20,368.00
2018,09,13,13,21,407.30
2018,09,13,13,22,400.80
2018,09,13,13,23,384.90
2018,09,13,13,24,395.70
2018,09,13,13,25,425.80
2018,09,13,13,26,465.90
2018,09,13,13,27,504.60
2018,09,13,13,28,518.90
2018,09,13,13,29,563.90
2018,09,13,13,30,623.30
2018,09,13,13,31,598.10
2018,09,13,13,32,539.30
2018,09,13,13,33,471.20
2018,09,13,13,34,422.00
2018,09,13,13,35,376.70
2018,09,13,13,36,326.40
2018,09,13,13,37,308.00
2018,09,13,13,38,313.70
2018,09,13,13,39,324.00
2018,09,13,13,40,315.10
2018,09,13,13,41,284.40
2018,09,13,13,42,255.60
2018,09,13,13,43,227.00
2018,09,13,13,44,220.90
2018,09,13,13,45,225.00
2018,09,13,13,46,238.80
2018,09,13,13,47,291.60
2018,09,13,13,48,363.30
2018,09,13,13,49,394.10
2018,09,13,13,50,381.00
2018,09,13,13,51,359.90
2018,09,13,13,52,351.00
2018,09,13,13,53,356.00
2018,09,13,13,54,374.20
2018,09,13,13,55,373.70
2018,09,13,13,56,364.80
2018,09,13,13,57,352.80
2018,09,13,13,58,350.60
2018,09,13,13,59,357.70
2018,09,13,14,00,389.30
2018,09,13,14,01,396.00
2018,09,13,14,02,399.00
2018,09,13,14,03,454.60
2018,09,13,14,04,471.90
2018,09,13,14,05,454.70
2018,09,13,14,06,448.50
2018,09,13,14,07,428.20
2018,09,13,14,08,381.10
2018,09,13,14,09,358.50
2018,09,13,14,10,362.70
2018,09,13,14,11,375.70
2018,09,13,14,12,375.70
2018,09,13,14,13,382.80
2018,09,13,14,14,372.00
2018,09,13,14,15,379.70
2018,09,13,14,16,367.90
2018,09,13,14,17,371.20
2018,09,13,14,18,392.90
2018,09,13,14,19,421.20
2018,09,13,14,20,387.70
2018,09,13,14,21,349.90
2018,09,13,14,22,321.40
2018,09,13,14,23,285.90
2018,09,13,14,24,356.50
2018,09,13,14,25,359.60
2018,09,13,14,26,349.60
2018,09,13,14,27,327.90
2018,09,13,14,28,333.40
2018,09,13,14,29,329.40
2018,09,13,14,30,308.00
2018,09,13,14,31,314.40
2018,09,13,14,32,331.60
2018,09,13,14,33,349.40
2018,09,13,14,34,357.00
2018,09,13,14,35,389.70
2018,09,13,14,36,424.90
2018,09,13,14,37,423.90
2018,09,13,14,38,438.30
2018,09,13,14,39,481.00
2018,09,13,14,40,480.20
2018,09,13,14,41,385.00
2018,09,13,14,42,385.00
2018,09,13,14,43,385.00
2018,09,13,14,44,385.00
2018,09,13,14,45,385.00
2018,09,13,14,46,385.00
2018,09,13,14,47,385.00
2018,09,13,14,48,608.60
2018,09,13,14,49,795.00
2018,09,13,14,50,795.00
2018,09,13,14,51,559.40
2018,09,13,14,52,471.00
2018,09,13,14,53,471.00
2018,09,13,14,54,471.00
2018,09,13,14,55,471.00
2018,09,13,14,56,471.00
2018,09,13,14,57,471.00
2018,09,13,14,58,471.00
2018,09,13,14,59,471.00
2018,09,13,15,00,471.00
2018,09,13,15,01,471.00
2018,09,13,15,02,476.70
2018,09,13,15,03,483.00
2018,09,13,15,04,621.70
2018,09,13,15,05,673.70
2018,09,13,15,06,657.00
2018,09,13,15,07,657.00
2018,09,13,15,08,657.00
2018,09,13,15,09,657.00
2018,09,13,15,10,657.00
2018,09,13,15,11,663.40
2018,09,13,15,12,724.00
2018,09,13,15,13,706.90
2018,09,13,15,14,660.60
2018,09,13,15,15,655.10
2018,09,13,15,16,634.60
2018,09,13,15,17,670.00
2018,09,13,15,18,556.00
2018,09,13,15,19,461.00
2018,09,13,15,20,567.70
2018,09,13,15,21,621.00
2018,09,13,15,22,621.00
2018,09,13,15,23,621.00
2018,09,13,15,24,621.00
2018,09,13,15,25,650.60
2018,09,13,15,26,652.00
2018,09,13,15,27,643.50
2018,09,13,15,28,604.50
2018,09,13,15,29,597.90
2018,09,13,15,30,583.30
2018,09,13,15,31,578.80
2018,09,13,15,32,576.00
2018,09,13,15,33,569.00
2018,09,13,15,34,515.10
2018,09,13,15,35,512.30
2018,09,13,15,36,571.00
2018,09,13,15,37,591.30
2018,09,13,15,38,589.40
2018,09,13,15,39,582.60
2018,09,13,15,40,567.80
2018,09,13,15,41,563.30
2018,09,13,15,42,567.30
2018,09,13,15,43,575.10
2018,09,13,15,44,582.00
2018,09,13,15,45,582.00
2018,09,13,15,46,580.30
2018,09,13,15,47,579.90
2018,09,13,15,48,574.70
2018,09,13,15,49,562.70
2018,09,13,15,50,561.70
2018,09,13,15,51,563.00
2018,09,13,15,52,554.50
2018,09,13,15,53,546.00
2018,09,13,15,54,535.00
2018,09,13,15,55,530.80
2018,09,13,15,56,526.70
2018,09,13,15,57,524.00
2018,09,13,15,58,524.70
2018,09,13,15,59,528.10
2018,09,13,16,00,528.70
2018,09,13,16,01,522.00
2018,09,13,16,02,518.00
2018,09,13,16,03,517.00
2018,09,13,16,04,517.00
2018,09,13,16,05,515.70
2018,09,13,16,06,512.80
2018,09,13,16,07,510.40
2018,09,13,16,08,508.30
2018,09,13,16,09,508.00
2018,09,13,16,10,506.10
2018,09,13,16,11,506.00
2018,09,13,16,12,505.50
2018,09,13,16,13,502.00
2018,09,13,16,14,498.10
2018,09,13,16,15,494.70
2018,09,13,16,16,490.80
2018,09,13,16,17,487.10
2018,09,13,16,18,483.40
2018,09,13,16,19,480.80
2018,09,13,16,20,480.00
2018,09,13,16,21,481.50
2018,09,13,16,22,482.80
2018,09,13,16,23,482.10
2018,09,13,16,24,475.60
2018,09,13,16,25,478.00
2018,09,13,16,26,477.80
2018,09,13,16,27,475.80
2018,09,13,16,28,474.50
2018,09,13,16,29,472.40
2018,09,13,16,30,470.30
2018,09,13,16,31,464.90
2018,09,13,16,32,458.00
2018,09,13,16,33,457.00
2018,09,13,16,34,455.10
2018,09,13,16,35,452.70
2018,09,13,16,36,450.60
2018,09,13,16,37,450.00
2018,09,13,16,38,451.70
2018,09,13,16,39,450.20
2018,09,13,16,40,449.80
2018,09,13,16,41,445.70
2018,09,13,16,42,443.00
2018,09,13,16,43,442.50
2018,09,13,16,44,440.10
2018,09,13,16,45,437.30
2018,09,13,16,46,434.30
2018,09,13,16,47,429.60
2018,09,13,16,48,424.40
2018,09,13,16,49,420.80
2018,09,13,16,50,418.70
2018,09,13,16,51,417.30
2018,09,13,16,52,412.10
2018,09,13,16,53,420.40
2018,09,13,16,54,420.20
2018,09,13,16,55,421.90
2018,09,13,16,56,420.70
2018,09,13,16,57,407.60
2018,09,13,16,58,406.50
2018,09,13,16,59,404.90
2018,09,13,17,00,391.70
2018,09,13,17,01,374.00
2018,09,13,17,02,363.00
2018,09,13,17,03,365.80
2018,09,13,17,04,374.60
2018,09,13,17,05,375.30
2018,09,13,17,06,368.20
2018,09,13,17,07,354.70
2018,09,13,17,08,346.00
2018,09,13,17,09,336.90
2018,09,13,17,10,311.40
2018,09,13,17,11,293.10
2018,09,13,17,12,285.00
2018,09,13,17,13,284.00
2018,09,13,17,14,279.60
2018,09,13,17,15,272.00
2018,09,13,17,16,258.60
2018,09,13,17,17,246.70
2018,09,13,17,18,240.80
2018,09,13,17,19,233.40
2018,09,13,17,20,223.30